Regional Weather Roundup
Issued by NWS Cleveland, OH

Home | Current Version | Previous Version | Text Only | Print | Product List | Glossary On
Versions: 1 2 3 4 5 6 7 8 9 10 11 12 13 14 15 16 17 18 19 20 21 22 23 24 25 26 27 28 29 30 31 32 33 34 35 36 37 38 39 40 41 42 43 44 45 46 47 48 49 50
000
ASUS41 KCLE 242200
RWRCLE
OHIO REGIONAL WEATHER ROUNDUP
NATIONAL WEATHER SERVICE WILMINGTON, OH
600 PM EDT FRI JUN 24 2016

NOTE: "FAIR" INDICATES FEW OR NO CLOUDS BELOW 12,000 FEET WITH NO
SIGNIFICANT WEATHER AND/OR OBSTRUCTIONS TO VISIBILITY.

OHZ001>008-015>018-024>027-034-035-043-044-242300-
   NORTHWEST OHIO

CITY           SKY/WX    TMP DP  RH WIND       PRES   REMARKS
DEFIANCE       FAIR      82  50  32 E7        30.09R
FINDLAY        FAIR      80  47  31 E13       30.08S
TOLEDO EXPRESS FAIR      80  51  36 SE6       30.08F
TOLEDO EXEC    FAIR      80  47  31 NE8       30.09F
LIMA           FAIR      79  56  45 NE5       30.09R
$$

OHZ009>014-019>023-028>033-038-089-242300-
   NORTHEAST OHIO

CITY           SKY/WX    TMP DP  RH WIND       PRES   REMARKS
CLE-HOPKINS    FAIR      77  45  32 N10       30.10F
CLE-LAKEFRONT  FAIR      74  56  53 NE10      30.07F
CUY CO. ARPT   SUNNY     81  43  26 N13       30.09S
LORAIN-ELYRIA  FAIR      77  45  32 NE10      30.09S
ASHTABULA      FAIR      76  47  35 N8        30.08S
AKRON-CANTON   FAIR      81  55  40 N9        30.05F
WOOSTER        NOT AVBL
MANSFIELD      FAIR      79  50  36 N12       30.09S
YOUNGSTOWN     FAIR      81  55  40 NW8       30.05S
$$

OHZ042-051>053-060>062-070>072-077>081-242300-
  SOUTHWEST OHIO

CITY           SKY/WX    TMP DP  RH WIND       PRES   REMARKS
CINC-COVINGTON FAIR      85  66  53 NW6       30.04F
CINC-LUNKEN    CLOUDY    82  69  64 E7        30.03S
HAMILTON       FAIR      85  65  51 N5        30.05S
DAYTON         NOT AVBL
WRIGHT-PAT AFB NOT AVBL
DAYTON GENERAL FAIR      84  61  45 N8        30.05S
WILMINGTON     FAIR      81  63  54 N7        30.05S
$$

OHZ036-037-039>041-045>050-054>059-063>069-073>076-082>088-242300-
  CENTRAL AND SOUTHEAST OHIO

CITY           SKY/WX    TMP DP  RH WIND       PRES   REMARKS
COLUMBUS       FAIR      83  58  42 N8        30.03F
OSU AIRPORT    FAIR      82  55  39 N9        30.05F
BOLTON FIELD   SUNNY     82  61  47 N8        30.05F
RICKENBACK AFB NOT AVBL
NEWARK         FAIR      84  58  40 VRB5      30.04S
MARION         FAIR      80  49  33 N12       30.08S
LANCASTER      FAIR      83  63  50 N6        30.04S
ZANESVILLE     FAIR      86  61  42 N7        30.03S
NEW PHILLY     FAIR      86  55  34 VRB5      30.04S
$$




USA.gov is the U.S. government's official web portal to all federal, state and local government web resources and services.